TimeEDT,TemperatureF,Dew PointF,Humidity,Sea Level PressureIn,VisibilityMPH,Wind Direction,Wind SpeedMPH,Gust SpeedMPH,PrecipitationIn,Events,Conditions,WindDirDegrees,DateUTC
12:15 AM,53.6,48.2,82,29.82,10.0,ENE,16.1,21.9,N/A,,Overcast,60,2011-10-02 04:15:00
12:35 AM,53.6,48.2,82,29.82,10.0,ENE,15.0,24.2,N/A,,Overcast,70,2011-10-02 04:35:00
12:55 AM,53.6,48.2,82,29.82,10.0,ENE,17.3,20.7,N/A,,Overcast,70,2011-10-02 04:55:00
1:15 AM,51.8,48.2,88,29.83,10.0,ENE,16.1,24.2,N/A,,Overcast,60,2011-10-02 05:15:00
1:55 AM,51.8,48.2,88,29.84,10.0,ENE,12.7,-,N/A,,Overcast,60,2011-10-02 05:55:00
2:15 AM,51.8,48.2,88,29.85,10.0,ENE,11.5,-,N/A,,Overcast,70,2011-10-02 06:15:00
2:35 AM,51.8,48.2,88,29.85,8.0,ENE,10.4,16.1,N/A,,Overcast,60,2011-10-02 06:35:00
2:55 AM,51.8,48.2,88,29.84,8.0,ENE,10.4,17.3,N/A,,Overcast,60,2011-10-02 06:55:00
3:15 AM,51.8,48.2,88,29.84,10.0,ENE,9.2,17.3,N/A,,Overcast,60,2011-10-02 07:15:00
3:35 AM,51.8,48.2,88,29.85,10.0,ENE,13.8,18.4,N/A,,Overcast,60,2011-10-02 07:35:00
3:55 AM,51.8,48.2,88,29.86,10.0,East,9.2,-,N/A,,Overcast,80,2011-10-02 07:55:00
4:15 AM,51.8,48.2,88,29.85,7.0,ENE,11.5,-,N/A,,Overcast,60,2011-10-02 08:15:00
4:35 AM,51.8,48.2,88,29.86,8.0,ENE,11.5,16.1,N/A,,Overcast,70,2011-10-02 08:35:00
4:55 AM,51.8,48.2,88,29.87,10.0,ENE,10.4,17.3,N/A,,Overcast,70,2011-10-02 08:55:00
5:35 AM,51.8,48.2,88,29.87,9.0,ENE,11.5,-,N/A,,Overcast,60,2011-10-02 09:35:00
5:55 AM,51.8,48.2,88,29.88,7.0,ENE,12.7,-,N/A,,Overcast,70,2011-10-02 09:55:00
6:15 AM,51.8,50.0,94,29.88,5.0,ENE,11.5,-,N/A,,Overcast,60,2011-10-02 10:15:00
6:35 AM,51.8,50.0,94,29.88,5.0,ENE,9.2,-,N/A,,Overcast,70,2011-10-02 10:35:00
6:55 AM,53.6,50.0,88,29.89,10.0,East,11.5,16.1,N/A,,Overcast,80,2011-10-02 10:55:00
7:15 AM,53.6,50.0,88,29.89,10.0,ENE,13.8,-,N/A,,Overcast,60,2011-10-02 11:15:00
7:35 AM,53.6,50.0,88,29.89,10.0,NNE,5.8,-,N/A,,Overcast,20,2011-10-02 11:35:00
7:55 AM,53.6,50.0,88,29.90,10.0,ENE,8.1,-,N/A,,Overcast,60,2011-10-02 11:55:00
8:15 AM,53.6,50.0,88,29.90,7.0,NE,6.9,-,N/A,,Overcast,50,2011-10-02 12:15:00
8:35 AM,53.6,50.0,88,29.90,5.0,NE,8.1,-,N/A,,Overcast,40,2011-10-02 12:35:00
8:55 AM,53.6,51.8,94,29.90,5.0,NE,13.8,18.4,0.01,,Overcast,50,2011-10-02 12:55:00
9:15 AM,53.6,51.8,94,29.90,7.0,NE,8.1,-,0.07,,Overcast,50,2011-10-02 13:15:00
9:35 AM,53.6,51.8,94,29.91,5.0,ENE,11.5,-,0.09,,Overcast,60,2011-10-02 13:35:00
9:55 AM,53.6,51.8,94,29.90,5.0,ENE,11.5,-,0.10,,Overcast,60,2011-10-02 13:55:00
10:15 AM,53.6,51.8,94,29.90,5.0,East,12.7,-,N/A,,Overcast,80,2011-10-02 14:15:00
10:35 AM,55.4,51.8,88,29.90,5.0,ENE,11.5,16.1,N/A,,Overcast,70,2011-10-02 14:35:00
10:55 AM,55.4,51.8,88,29.89,8.0,ENE,10.4,-,N/A,,Overcast,70,2011-10-02 14:55:00
11:15 AM,55.4,51.8,88,29.89,8.0,ENE,12.7,20.7,N/A,,Overcast,70,2011-10-02 15:15:00
11:35 AM,55.4,53.6,94,29.90,4.0,East,12.7,-,0.01,,Overcast,80,2011-10-02 15:35:00
11:55 AM,55.4,53.6,94,29.89,4.0,ENE,5.8,-,0.01,,Overcast,60,2011-10-02 15:55:00
12:15 PM,55.4,53.6,94,29.89,3.0,NE,6.9,-,N/A,,Overcast,50,2011-10-02 16:15:00
12:35 PM,55.4,53.6,94,29.88,7.0,NE,6.9,-,0.05,,Overcast,40,2011-10-02 16:35:00
12:55 PM,55.4,53.6,94,29.87,4.0,NE,6.9,-,0.06,,Overcast,40,2011-10-02 16:55:00
1:15 PM,55.4,53.6,94,29.87,7.0,NE,5.8,-,0.04,,Overcast,40,2011-10-02 17:15:00
1:35 PM,55.4,53.6,94,29.86,3.0,NE,10.4,-,0.05,,Overcast,50,2011-10-02 17:35:00
1:55 PM,55.4,53.6,94,29.86,4.0,NE,6.9,-,0.06,,Overcast,50,2011-10-02 17:55:00
2:15 PM,55.4,53.6,94,29.86,10.0,NNE,5.8,-,0.03,,Overcast,30,2011-10-02 18:15:00
2:55 PM,55.4,53.6,94,29.85,4.0,NE,5.8,-,0.13,,Overcast,40,2011-10-02 18:55:00
3:15 PM,55.4,53.6,94,29.84,1.8,ENE,5.8,-,N/A,,Overcast,70,2011-10-02 19:15:00
3:35 PM,55.4,53.6,94,29.84,1.2,NE,3.5,-,N/A,,Overcast,40,2011-10-02 19:35:00
3:55 PM,57.2,53.6,88,29.85,1.2,Calm,Calm,-,0.01,,Overcast,0,2011-10-02 19:55:00
4:15 PM,57.2,55.4,94,29.85,3.0,Calm,Calm,-,0.02,,Overcast,0,2011-10-02 20:15:00
4:35 PM,57.2,53.6,88,29.85,2.5,NNE,3.5,-,0.03,,Overcast,30,2011-10-02 20:35:00
4:55 PM,57.2,53.6,88,29.85,2.0,NE,4.6,-,0.03,,Overcast,50,2011-10-02 20:55:00
5:35 PM,57.2,53.6,88,29.85,1.8,North,3.5,-,N/A,,Overcast,10,2011-10-02 21:35:00
6:15 PM,55.4,53.6,94,29.87,1.5,NNE,5.8,-,0.01,,Overcast,30,2011-10-02 22:15:00
6:35 PM,55.4,53.6,94,29.88,1.5,NE,6.9,-,0.01,,Overcast,40,2011-10-02 22:35:00
6:55 PM,55.4,53.6,94,29.88,2.5,NE,6.9,-,0.01,,Overcast,40,2011-10-02 22:55:00
7:15 PM,55.4,53.6,94,29.89,2.5,NE,5.8,-,N/A,,Overcast,50,2011-10-02 23:15:00
7:55 PM,55.4,53.6,94,29.89,3.0,NE,8.1,-,N/A,,Overcast,50,2011-10-02 23:55:00
8:15 PM,55.4,53.6,94,29.89,4.0,ENE,8.1,-,N/A,,Overcast,60,2011-10-03 00:15:00
8:35 PM,55.4,53.6,94,29.89,5.0,NE,6.9,-,N/A,,Overcast,50,2011-10-03 00:35:00
8:55 PM,57.2,53.6,88,29.89,6.0,ENE,9.2,-,N/A,,Overcast,60,2011-10-03 00:55:00
9:15 PM,57.2,53.6,88,29.89,3.0,NE,8.1,-,N/A,,Overcast,50,2011-10-03 01:15:00
9:35 PM,57.2,53.6,88,29.89,3.0,NE,8.1,-,N/A,,Overcast,50,2011-10-03 01:35:00
9:55 PM,55.4,53.6,94,29.89,4.0,ENE,6.9,-,N/A,,Overcast,60,2011-10-03 01:55:00
10:15 PM,55.4,53.6,94,29.90,3.0,NE,5.8,-,N/A,,Overcast,50,2011-10-03 02:15:00
10:35 PM,55.4,53.6,94,29.90,4.0,NE,5.8,-,N/A,,Overcast,50,2011-10-03 02:35:00
10:55 PM,57.2,53.6,88,29.91,4.0,NE,6.9,-,N/A,,Overcast,40,2011-10-03 02:55:00
11:15 PM,57.2,53.6,88,29.91,8.0,NE,4.6,-,N/A,,Overcast,50,2011-10-03 03:15:00
11:35 PM,57.2,53.6,88,29.92,10.0,NE,4.6,-,N/A,,Overcast,50,2011-10-03 03:35:00
11:55 PM,57.2,53.6,88,29.92,10.0,NE,3.5,-,N/A,,Overcast,40,2011-10-03 03:55:00